Погода в Сиркка

Финляндия     67°48′57″N   24°49′43″E
темп.,
°C
ветер,
м/с
пор.,
м/с
влажн.,
%
обл.,
%
осадки,
мм/ч
давл.,
гПа
погр.,
м
27 ноября, сб
сб2723:00−13с1196100 0.0 100430
02:00−13с1196100 0.0 100529
05:00−13ссз1197100 0.0 100620
08:00−15ссз119758 0.0 100810
11:00−16с119845 0.0 101011
14:00−17ссз119834 0.0 101111
17:00−18с119964 0.0 101111
20:00−18с1110070 0.0 101211
28 ноября, вс
вс2823:00−15в119797 0.0 101125
02:00−16вюв0099100 0.0 101115
05:00−14в1197100 0.2 101059
08:00−14вюв1198100 0.5 100921
11:00−13ююв1198100 0.3 101040
14:00−14ю1198100 0.5 101018
17:00−14ю1198100 0.1 101026
20:00−14ю1298100 0.3 101068
29 ноября, пн
пн2923:00−13ю2697100 0.1 1010178
02:00−13ю2797100 0.2 1010231
05:00−14ю2798100 0.0 1010196
08:00−11ю2896100 0.1 1010288
11:00−9ю31294100 0.5 1010592
14:00−9ю31194100 0.9 1009521
17:00−9ююв31294100 0.3 1009519
20:00−9ююв41293100 0.6 1008506
30 ноября, вт
вт3023:00−10ююв2696100 0.1 1008220
02:00−10ююв2693100 0.3 1007267
05:00−12юв1398100 0.0 100673
08:00−13юв0098100 0.0 100510
11:00−16с119991 0.0 10049
14:00−17ссз219982 0.0 100322
17:00−16ссз2398100 0.0 100160
20:00−15ссз2595100 0.0 999131
1 декабря, ср
ср123:00−14ссз31090100 0.0 998267
02:00−12с31285100 0.0 996435
05:00−10с41390100 0.1 995635
08:00−9ссв51389100 0.3 994607
11:00−7ссв51386100 0.1 994859
14:00−5ссв61585100 0.1 9941343
17:00−5св61593100 0.6 9941471
20:00−5св71691100 1.6 9941525